Location: Aiyede
(8.4833°N, 4.4500°E)
Time: 09:39:18
(UTC+00:00)

Meteor 1-12 Rocket - Pass Details

Date: 24 September 2020
Orbit: 854 x 927 km, 81.2° (Epoch: 21 October)

Event Time Altitude Azimuth Distance (km) Brightness Sun altitude
Rises 17:54:42 0° 182° (S) 3,561 7.5 -5.2°
Reaches altitude 10° 17:57:11 10° 180° (S) 2,613 6.8 -5.9°
Maximum altitude 18:03:09 77° 94° (E) 936 4.3 -7.3°
Drops below altitude 10° 18:09:01 10° 9° (N) 2,570 6.6 -8.8°
Sets 18:11:27 0° 8° (N) 3,499 7.3 -9.4°
